AAL1909 KLAX-KDFW

Flight info

Callsign AAL1909
Flight time N/A
Altitude 33000
Route DOTSS2 CLEEE PKE HIDAT KA27O NABOB J74 TXO TURKI VKTRY2
Aircraft B722/M-SDFGHRWY/C

Departure

Time 2026-05-05 17:21
Airport Los Angeles International Airport (KLAX)

Arrival

Time N/A
Airport Dallas Fort Worth International Airport (KDFW)
Time Latitude Longitude Altitude Speed Heading
2026-05-05 16:49 33.93955 -118.40593 124 ft 0 kts 321°
2026-05-05 16:50 33.93955 -118.40592 124 ft 0 kts 321°
2026-05-05 16:54 33.93954 -118.40592 129 ft 0 kts 321°
2026-05-05 17:07 33.93940 -118.40579 118 ft 3 kts 321°
2026-05-05 17:07 33.93921 -118.40568 130 ft 4 kts
2026-05-05 17:07 33.93903 -118.40580 124 ft 4 kts 60°
2026-05-05 17:07 33.93899 -118.40602 124 ft 4 kts 83°
2026-05-05 17:08 33.93896 -118.40630 124 ft 1 kts 83°
2026-05-05 17:14 33.93897 -118.40622 124 ft 4 kts 83°
2026-05-05 17:14 33.93898 -118.40560 125 ft 7 kts 111°
2026-05-05 17:14 33.93843 -118.40516 126 ft 11 kts 137°
2026-05-05 17:15 33.93834 -118.40430 128 ft 12 kts 83°
2026-05-05 17:15 33.93845 -118.40325 129 ft 14 kts 83°
2026-05-05 17:15 33.93857 -118.40203 129 ft 16 kts 83°
2026-05-05 17:15 33.93871 -118.40066 126 ft 17 kts 83°
2026-05-05 17:16 33.93887 -118.39914 127 ft 19 kts 83°
2026-05-05 17:16 33.93901 -118.39750 126 ft 21 kts 83°
2026-05-05 17:16 33.93920 -118.39573 129 ft 22 kts 83°
2026-05-05 17:16 33.93940 -118.39383 124 ft 24 kts 83°
2026-05-05 17:17 33.93961 -118.39182 128 ft 25 kts 83°
2026-05-05 17:17 33.93983 -118.38970 125 ft 26 kts 83°
2026-05-05 17:17 33.94006 -118.38747 129 ft 27 kts 83°
2026-05-05 17:17 33.94030 -118.38516 129 ft 28 kts 83°
2026-05-05 17:18 33.94054 -118.38275 125 ft 29 kts 83°
2026-05-05 17:18 33.94075 -118.38072 129 ft 9 kts 83°
2026-05-05 17:18 33.94056 -118.38002 128 ft 9 kts 149°
2026-05-05 17:18 33.94000 -118.37999 125 ft 6 kts 214°
2026-05-05 17:19 33.93984 -118.38036 125 ft 5 kts 264°
2026-05-05 17:19 33.93983 -118.38045 126 ft 0 kts 263°
2026-05-05 17:20 33.93978 -118.38089 129 ft 25 kts 263°
2026-05-05 17:20 33.93933 -118.38539 128 ft 83 kts 263°
2026-05-05 17:20 33.93841 -118.39430 129 ft 130 kts 263°
2026-05-05 17:21 33.93721 -118.40619 296 ft 151 kts 263°
2026-05-05 17:21 33.93586 -118.41912 716 ft 160 kts 262°
2026-05-05 17:21 33.93427 -118.43314 1131 ft 177 kts 262°
2026-05-05 17:22 33.92957 -118.46397 2058 ft 205 kts 245°
2026-05-05 17:22 33.92052 -118.47841 2472 ft 225 kts 228°
2026-05-05 17:22 33.90966 -118.49227 3252 ft 236 kts 229°
2026-05-05 17:22 33.89824 -118.50810 3605 ft 261 kts 233°
2026-05-05 17:23 33.88691 -118.52471 4707 ft 256 kts 233°
2026-05-05 17:23 33.87509 -118.54124 5575 ft 266 kts 226°
2026-05-05 17:23 33.85931 -118.55343 6473 ft 274 kts 202°
2026-05-05 17:23 33.84048 -118.55805 7357 ft 281 kts 181°
2026-05-05 17:24 33.82094 -118.55562 8282 ft 285 kts 170°
2026-05-05 17:24 33.80158 -118.54975 9221 ft 287 kts 166°
2026-05-05 17:24 33.78209 -118.54341 9868 ft 294 kts 169°
2026-05-05 17:24 33.76175 -118.53803 10376 ft 308 kts 171°
2026-05-05 17:25 33.73991 -118.53262 10596 ft 333 kts 169°
2026-05-05 17:25 33.73254 -118.53035 10658 ft 342 kts 164°
2026-05-05 17:25 33.69870 -118.50416 11891 ft 354 kts 133°
2026-05-05 17:25 33.68498 -118.47940 12628 ft 359 kts 117°
2026-05-05 17:26 33.67480 -118.45151 13000 ft 369 kts 110°
2026-05-05 17:26 33.66703 -118.42294 13003 ft 363 kts 106°
2026-05-05 17:26 33.65986 -118.39373 13002 ft 364 kts 107°
2026-05-05 17:26 33.65165 -118.36504 13004 ft 363 kts 110°
2026-05-05 17:27 33.64537 -118.33594 12982 ft 362 kts 96°
2026-05-05 17:27 33.64393 -118.31551 12997 ft 362 kts 92°
2026-05-05 17:27 33.64368 -118.28570 12991 ft 362 kts 88°
2026-05-05 17:27 33.64474 -118.25510 12994 ft 361 kts 88°
2026-05-05 17:28 33.64500 -118.22539 13143 ft 361 kts 90°
2026-05-05 17:28 33.64451 -118.19496 13887 ft 365 kts 90°
2026-05-05 17:28 33.64434 -118.16457 14676 ft 366 kts 89°
2026-05-05 17:28 33.64458 -118.13383 15337 ft 371 kts 89°
2026-05-05 17:29 33.64470 -118.10265 16061 ft 374 kts 89°
2026-05-05 17:29 33.64456 -118.07138 16765 ft 377 kts 90°
2026-05-05 17:29 33.64445 -118.03971 17411 ft 381 kts 89°
2026-05-05 17:29 33.64446 -118.00773 18074 ft 385 kts 89°
2026-05-05 17:30 33.64447 -117.97557 18756 ft 386 kts 90°
2026-05-05 17:30 33.64440 -117.94308 19277 ft 392 kts 90°
2026-05-05 17:30 33.64431 -117.91030 19892 ft 394 kts 90°
2026-05-05 17:30 33.64423 -117.87732 20508 ft 396 kts 90°
2026-05-05 17:31 33.64416 -117.84414 21039 ft 401 kts 90°
2026-05-05 17:31 33.64412 -117.81053 21645 ft 403 kts 89°
2026-05-05 17:31 33.64662 -117.77712 22152 ft 405 kts 80°
2026-05-05 17:31 33.65251 -117.74379 22698 ft 408 kts 75°
2026-05-05 17:32 33.66015 -117.71103 23262 ft 410 kts 73°
2026-05-05 17:32 33.66750 -117.67775 23737 ft 414 kts 76°
2026-05-05 17:32 33.67345 -117.64392 24146 ft 417 kts 78°
2026-05-05 17:32 33.67939 -117.60953 24514 ft 421 kts 77°
2026-05-05 17:33 33.68618 -117.57521 24920 ft 424 kts 76°
2026-05-05 17:33 33.69323 -117.54067 25298 ft 428 kts 76°
2026-05-05 17:33 33.69987 -117.50569 25660 ft 431 kts 77°
2026-05-05 17:33 33.70633 -117.47038 26009 ft 435 kts 77°
2026-05-05 17:34 33.71308 -117.43480 26274 ft 440 kts 77°
2026-05-05 17:34 33.72009 -117.39882 26640 ft 443 kts 77°
2026-05-05 17:34 33.72700 -117.36260 26989 ft 447 kts 77°
2026-05-05 17:34 33.73383 -117.32600 27315 ft 450 kts 77°
2026-05-05 17:35 33.74077 -117.28918 27636 ft 453 kts 77°
2026-05-05 17:35 33.74773 -117.25210 27978 ft 457 kts 79°
2026-05-05 17:35 33.75130 -117.21407 28288 ft 460 kts 88°
2026-05-05 17:35 33.75144 -117.17562 28576 ft 462 kts 93°
2026-05-05 17:36 33.74945 -117.13684 28866 ft 467 kts 95°
2026-05-05 17:36 33.74779 -117.09776 29167 ft 470 kts 93°
2026-05-05 17:36 33.74756 -117.05835 29473 ft 473 kts 91°
2026-05-05 17:36 33.74741 -117.01861 29745 ft 476 kts 92°
2026-05-05 17:37 33.74630 -116.97888 30039 ft 478 kts 94°
2026-05-05 17:37 33.74494 -116.93874 30274 ft 481 kts 94°
2026-05-05 17:37 33.74415 -116.89838 30496 ft 484 kts 92°
2026-05-05 17:37 33.74360 -116.85830 30694 ft 487 kts 93°
2026-05-05 17:38 33.74267 -116.81756 30910 ft 489 kts 94°
2026-05-05 17:38 33.74149 -116.77657 31113 ft 492 kts 94°
2026-05-05 17:38 33.74049 -116.73534 31305 ft 495 kts 93°
2026-05-05 17:38 33.73968 -116.69394 31501 ft 497 kts 94°
2026-05-05 17:39 33.73874 -116.65242 31680 ft 500 kts 94°
2026-05-05 17:39 33.73766 -116.61049 31836 ft 503 kts 94°
2026-05-05 17:39 33.73657 -116.56834 32054 ft 505 kts 94°
2026-05-05 17:40 33.73447 -116.48284 32040 ft 513 kts 95°
2026-05-05 17:40 33.73342 -116.44014 32308 ft 512 kts 95°
2026-05-05 17:40 33.73227 -116.39718 32554 ft 512 kts 95°
2026-05-05 17:40 33.73111 -116.35446 32792 ft 513 kts 95°
2026-05-05 17:41 33.72997 -116.31168 32941 ft 516 kts 95°
2026-05-05 17:41 33.72757 -116.22432 32953 ft 528 kts 95°
2026-05-05 17:42 33.72507 -116.13530 32956 ft 536 kts 95°
2026-05-05 17:42 33.73141 -116.04606 32942 ft 542 kts 78°
2026-05-05 17:43 33.75393 -115.95950 32935 ft 543 kts 70°
2026-05-05 17:43 33.77966 -115.87393 32933 ft 546 kts 74°
2026-05-05 17:44 33.80216 -115.78669 32938 ft 546 kts 72°
2026-05-05 17:44 33.82719 -115.70041 32924 ft 546 kts 73°
2026-05-05 17:45 33.85009 -115.61383 32907 ft 548 kts 74°
2026-05-05 17:45 33.87458 -115.52668 32913 ft 550 kts 73°
2026-05-05 17:46 33.89808 -115.43926 32912 ft 549 kts 74°
2026-05-05 17:46 33.92208 -115.35192 32907 ft 550 kts 73°
2026-05-05 17:47 33.94580 -115.26417 32898 ft 552 kts 75°
2026-05-05 17:47 33.96963 -115.17617 32901 ft 553 kts 74°
2026-05-05 17:48 33.99341 -115.08804 32900 ft 552 kts 75°
2026-05-05 17:48 34.01708 -114.99993 32878 ft 553 kts 75°
2026-05-05 17:49 34.04089 -114.91116 32899 ft 557 kts 75°
2026-05-05 17:49 34.06461 -114.82229 32901 ft 557 kts 75°
2026-05-05 17:50 34.08830 -114.73334 32899 ft 557 kts 75°
2026-05-05 17:50 34.11215 -114.64438 32897 ft 561 kts 74°
2026-05-05 17:51 34.13786 -114.55484 32896 ft 565 kts 73°
2026-05-05 17:51 34.16244 -114.46560 32892 ft 564 kts 74°
2026-05-05 17:52 34.18773 -114.37574 32870 ft 565 kts 74°
2026-05-05 17:52 34.21266 -114.28544 32879 ft 567 kts 75°
2026-05-05 17:53 34.23775 -114.19510 32877 ft 567 kts 74°
2026-05-05 17:53 34.26272 -114.10459 32880 ft 567 kts 75°
2026-05-05 17:54 34.28763 -114.01399 32878 ft 570 kts 75°
2026-05-05 17:54 34.31269 -113.92278 32878 ft 571 kts 75°
2026-05-05 17:55 34.33740 -113.83216 32877 ft 559 kts 75°
2026-05-05 17:55 34.36187 -113.74258 32839 ft 562 kts 75°
2026-05-05 17:56 34.38642 -113.65191 32871 ft 568 kts 75°
2026-05-05 17:56 34.41107 -113.56110 32881 ft 568 kts 75°
2026-05-05 17:57 34.43543 -113.47064 32876 ft 568 kts 75°
2026-05-05 17:57 34.45992 -113.37959 32865 ft 571 kts 76°
2026-05-05 17:58 34.48450 -113.28787 32876 ft 571 kts 76°
2026-05-05 17:58 34.50900 -113.19619 32875 ft 571 kts 76°
2026-05-05 17:59 34.53337 -113.10456 32836 ft 571 kts 76°
2026-05-05 17:59 34.55705 -113.01203 32864 ft 575 kts 82°
2026-05-05 18:00 34.56323 -112.91774 32893 ft 560 kts 99°
2026-05-05 18:00 34.55650 -112.82377 32883 ft 553 kts 104°
2026-05-05 18:01 34.55022 -112.73028 32854 ft 561 kts 102°
2026-05-05 18:01 34.54436 -112.63551 32879 ft 565 kts 105°
2026-05-05 18:02 34.53743 -112.54038 32884 ft 567 kts 103°
2026-05-05 18:02 34.53151 -112.44506 32957 ft 566 kts 104°
2026-05-05 18:03 34.52444 -112.35029 32972 ft 571 kts 104°
2026-05-05 18:03 34.51824 -112.25447 32949 ft 569 kts 104°
2026-05-05 18:04 34.51115 -112.15884 32917 ft 569 kts 104°
2026-05-05 18:04 34.50455 -112.06296 32879 ft 573 kts 105°
2026-05-05 18:05 34.49293 -111.96890 32889 ft 557 kts 115°
2026-05-05 18:05 34.47011 -111.88029 32872 ft 548 kts 121°
2026-05-05 18:06 34.44785 -111.79126 32842 ft 556 kts 117°
2026-05-05 18:06 34.42670 -111.70110 32898 ft 550 kts 120°
2026-05-05 18:07 34.40232 -111.61297 32895 ft 557 kts 118°
2026-05-05 18:07 34.38124 -111.52256 32987 ft 557 kts 118°
2026-05-05 18:08 34.35761 -111.43370 33026 ft 555 kts 119°